Garrett, IN

10:22 PM EST on December 04, 2016 (GMT -0500)
Auburn

Weather History for KGWB - June, 2013

Change the Weather History Date:

Monday, June 3, 2013

  Actual Average (KFWA) Record (KFWA)
Temperature  
Mean Temperature 57 °F 66 °F  
Max Temperature 68 °F 77 °F 96 °F (1934)
Min Temperature 46 °F 56 °F 38 °F (1929)
Degree Days  
Heating Degree Days 8 2  
Month to date heating degree days 8  
Since 1 June heating degree days 8  
Since 1 July heating degree days 6080  
Cooling Degree Days 0 4  
Month to date cooling degree days 11  
Year to date cooling degree days 68  
Since 1 June cooling degree days 11  
Growing Degree Days 7 (Base 50)    
Moisture  
Dew Point 40 °F    
Average Humidity 55    
Maximum Humidity 87    
Minimum Humidity 30    
Precipitation  
Precipitation 0.00 in 0.15 in 4.40 in (1989)
Month to date precipitation 0.47  
Year to date precipitation 15.27  
Snow  
Snow 0.00 in 0.00 in 0.00 in (2002)
Month to date snowfall 0.0  
Since 1 June snowfall 0.0  
Since 1 July snowfall 33.5  
Snow Depth -    
Sea Level Pressure  
Sea Level Pressure 30.06 in    
Wind  
Wind Speed 6 mph (North)    
Max Wind Speed 13 mph    
Max Gust Speed 17 mph    
Visibility 10 miles    
Events      
T = Trace of Precipitation, MM = Missing Value Source: NWS Daily Summary

Daily Weather History Graph

Daily Weather History Graph

Search for Another Location

Airport or City:

Trip Planner

Search our weather history database for the weather conditions in past years. The results will help you decide how hot, cold, wet, or windy it might be!

Date:

Astronomy

Jun. 03, 2013 Rise Set
Actual Time 6:08 AM EDT 9:08 PM EDT
Civil Twilight 5:35 AM EDT 9:42 PM EDT
Nautical Twilight 4:53 AM EDT 10:24 PM EDT
Astronomical Twilight 4:03 AM EDT 11:14 PM EDT
Moon 3:08 AM EDT (6/3) 4:36 PM EDT (6/3)
Length of Visible Light 16h 06m
Length of Day
15h 00m
Waning Crescent, 22% of the Moon is Illuminated
Jun 3
Waning Crescent
Jun 8
New
Jun 16
First Quarter
Jun 23
Full
Jun 30
Last Quarter

Hourly Weather History & Observations

Time (EDT) Temp. Windchill Dew Point Humidity Pressure Visibility Wind Dir Wind Speed Gust Speed Precip Events Conditions
12:15 AM 46.4 °F 43.5 °F 42.8 °F 87% 30.02 in 10.0 mi WNW 5.8 mph - N/A   Scattered Clouds
12:35 AM 50.0 °F - 42.8 °F 76% 30.01 in 10.0 mi WNW 4.6 mph - N/A   Mostly Cloudy
12:55 AM 50.0 °F - 42.8 °F 76% 30.02 in 10.0 mi NW 6.9 mph - N/A   Overcast
1:15 AM 50.0 °F - 42.8 °F 76% 30.02 in 10.0 mi NW 8.1 mph - N/A   Overcast
1:35 AM 50.0 °F - 42.8 °F 76% 30.02 in 10.0 mi NW 6.9 mph - N/A   Overcast
1:55 AM 50.0 °F - 42.8 °F 76% 30.02 in 10.0 mi NW 5.8 mph - N/A   Overcast
2:15 AM 50.0 °F - 42.8 °F 76% 30.02 in 10.0 mi NW 5.8 mph - N/A   Overcast
2:35 AM 50.0 °F - 42.8 °F 76% 30.02 in 10.0 mi NW 6.9 mph - N/A   Overcast
2:55 AM 50.0 °F - 44.6 °F 82% 30.02 in 10.0 mi NW 5.8 mph - N/A   Overcast
3:15 AM 50.0 °F - 44.6 °F 82% 30.01 in 10.0 mi NW 6.9 mph - N/A   Overcast
3:35 AM 50.0 °F - 44.6 °F 82% 30.01 in 10.0 mi NNW 5.8 mph - N/A   Overcast
3:55 AM 51.8 °F - 44.6 °F 76% 30.02 in 10.0 mi NNW 4.6 mph - N/A   Overcast
4:15 AM 51.8 °F - 44.6 °F 76% 30.02 in 10.0 mi North 5.8 mph - N/A   Overcast
4:35 AM 51.8 °F - 44.6 °F 76% 30.03 in 10.0 mi North 5.8 mph - N/A   Overcast
4:55 AM 51.8 °F - 44.6 °F 76% 30.03 in 10.0 mi North 5.8 mph - N/A   Overcast
5:15 AM 51.8 °F - 42.8 °F 71% 30.03 in 10.0 mi North 9.2 mph - N/A   Overcast
5:35 AM 50.0 °F - 41.0 °F 71% 30.03 in 10.0 mi North 9.2 mph 17.3 mph N/A   Overcast
5:55 AM 50.0 °F - 41.0 °F 71% 30.04 in 10.0 mi NNE 6.9 mph - N/A   Mostly Cloudy
6:15 AM 48.2 °F - 41.0 °F 76% 30.05 in 10.0 mi NNE 6.9 mph - N/A   Scattered Clouds
6:35 AM 48.2 °F - 41.0 °F 76% 30.05 in 10.0 mi NNE 8.1 mph - N/A   Clear
6:55 AM 48.2 °F - 41.0 °F 76% 30.06 in 10.0 mi NE 6.9 mph - N/A   Clear
7:15 AM 50.0 °F - 41.0 °F 71% 30.06 in 10.0 mi NE 4.6 mph - N/A   Clear
7:35 AM 50.0 °F - 41.0 °F 71% 30.06 in 10.0 mi NE 4.6 mph - N/A   Clear
7:55 AM 51.8 °F - 41.0 °F 67% 30.07 in 10.0 mi ENE 5.8 mph - N/A   Clear
8:15 AM 51.8 °F - 37.4 °F 58% 30.08 in 10.0 mi NE 5.8 mph - N/A   Clear
8:35 AM 51.8 °F - 35.6 °F 54% 30.08 in 10.0 mi NE 10.4 mph - N/A   Clear
8:55 AM 53.6 °F - 37.4 °F 54% 30.08 in 10.0 mi NE 11.5 mph - N/A   Clear
9:15 AM 53.6 °F - 37.4 °F 54% 30.08 in 10.0 mi ENE 8.1 mph - N/A   Clear
9:35 AM 53.6 °F - 37.4 °F 54% 30.08 in 10.0 mi NE 6.9 mph - N/A   Clear
9:55 AM 55.4 °F - 37.4 °F 51% 30.08 in 10.0 mi NNE 10.4 mph - N/A   Clear
10:15 AM 55.4 °F - 37.4 °F 51% 30.08 in 10.0 mi North 11.5 mph - N/A   Clear
10:35 AM 57.2 °F - 37.4 °F 48% 30.09 in 10.0 mi NE 9.2 mph - N/A   Clear
10:55 AM 59.0 °F - 37.4 °F 45% 30.10 in 10.0 mi NE 9.2 mph - N/A   Clear
11:15 AM 59.0 °F - 39.2 °F 48% 30.10 in 10.0 mi NNE 9.2 mph - N/A   Clear
11:35 AM 59.0 °F - 39.2 °F 48% 30.10 in 10.0 mi NNE 6.9 mph - N/A   Clear
11:55 AM 59.0 °F - 37.4 °F 45% 30.10 in 10.0 mi NE 12.7 mph - N/A   Clear
12:15 PM 60.8 °F - 37.4 °F 42% 30.10 in 10.0 mi NE 4.6 mph - N/A   Clear
12:35 PM 60.8 °F - 37.4 °F 42% 30.10 in 10.0 mi NE 6.9 mph - N/A   Clear
12:55 PM 60.8 °F - 41.0 °F 48% 30.10 in 10.0 mi North 5.8 mph - N/A   Clear
1:15 PM 62.6 °F - 33.8 °F 34% 30.10 in 10.0 mi Calm Calm - N/A   Clear
1:35 PM 62.6 °F - 35.6 °F 37% 30.09 in 10.0 mi ENE 4.6 mph - N/A   Clear
1:55 PM 62.6 °F - 37.4 °F 39% 30.08 in 10.0 mi Calm Calm - N/A   Clear
2:15 PM 64.4 °F - 37.4 °F 37% 30.07 in 10.0 mi ENE 5.8 mph - N/A   Clear
2:35 PM 64.4 °F - 37.4 °F 37% 30.06 in 10.0 mi NNW 9.2 mph - N/A   Clear
2:55 PM 64.4 °F - 37.4 °F 37% 30.05 in 10.0 mi NE 3.5 mph - N/A   Clear
3:15 PM 64.4 °F - 35.6 °F 34% 30.05 in 10.0 mi NNE 5.8 mph - N/A   Clear
3:35 PM 64.4 °F - 37.4 °F 37% 30.05 in 10.0 mi North 3.5 mph - N/A   Clear
3:55 PM 64.4 °F - 35.6 °F 34% 30.04 in 10.0 mi Calm Calm - N/A   Clear
4:15 PM 66.2 °F - 35.6 °F 32% 30.04 in 10.0 mi NNE 3.5 mph - N/A   Clear
4:35 PM 66.2 °F - 35.6 °F 32% 30.04 in 10.0 mi ENE 3.5 mph - N/A   Clear
4:55 PM 68.0 °F - 37.4 °F 33% 30.04 in 10.0 mi NNW 8.1 mph - N/A   Clear
5:15 PM 68.0 °F - 35.6 °F 30% 30.05 in 10.0 mi NW 10.4 mph - N/A   Clear
5:35 PM 66.2 °F - 37.4 °F 35% 30.05 in 10.0 mi NNE 3.5 mph - N/A   Clear
5:55 PM 68.0 °F - 37.4 °F 33% 30.04 in 10.0 mi NNW 6.9 mph - N/A   Clear
6:15 PM 68.0 °F - 37.4 °F 33% 30.04 in 10.0 mi NW 4.6 mph - N/A   Clear
6:35 PM 66.2 °F - 35.6 °F 32% 30.04 in 10.0 mi NNW 6.9 mph - N/A   Clear
6:55 PM 66.2 °F - 35.6 °F 32% 30.04 in 10.0 mi North 4.6 mph - N/A   Clear
7:15 PM 66.2 °F - 35.6 °F 32% 30.03 in 10.0 mi WNW 5.8 mph - N/A   Clear
7:35 PM 64.4 °F - 37.4 °F 37% 30.04 in 10.0 mi Calm Calm - N/A   Clear
7:55 PM 64.4 °F - 35.6 °F 34% 30.04 in 10.0 mi North 3.5 mph - N/A   Clear
8:15 PM 64.4 °F - 37.4 °F 37% 30.05 in 10.0 mi North 3.5 mph - N/A   Clear
8:35 PM 64.4 °F - 37.4 °F 37% 30.06 in 10.0 mi Calm Calm - N/A   Clear
8:55 PM 60.8 °F - 42.8 °F 52% 30.06 in 10.0 mi Calm Calm - N/A   Clear
9:15 PM 59.0 °F - 42.8 °F 55% 30.06 in 10.0 mi Calm Calm - N/A   Clear
9:35 PM 55.4 °F - 42.8 °F 63% 30.06 in 10.0 mi Calm Calm - N/A   Clear
9:55 PM 55.4 °F - 42.8 °F 63% 30.07 in 10.0 mi Calm Calm - N/A   Clear
10:15 PM 53.6 °F - 42.8 °F 67% 30.08 in 10.0 mi Calm Calm - N/A   Clear
10:35 PM 53.6 °F - 44.6 °F 72% 30.09 in 10.0 mi Calm Calm - N/A   Clear
10:55 PM 53.6 °F - 42.8 °F 67% 30.10 in 10.0 mi Calm Calm - N/A   Clear
11:35 PM 51.8 °F - 42.8 °F 71% 30.10 in 10.0 mi Calm Calm - N/A   Clear
11:55 PM 51.8 °F - 42.8 °F 71% 30.11 in 10.0 mi Calm Calm - N/A   Clear